This demonstration page uses our WeatherBlox Daily Observations layout. Learn more.

Left ArrowRight Arrow

39.92423, -83.80882

Hourly Observations for August 31, 2022

Temp ( °F °C ) Dew Point ( °F °C ) Humidity (%) Winds ( mph kmh ) Pressure ( in mb ) Visibility ( mi km ) Precip ( " mm )
12:56 am 00:56 Mostly Cloudy 65 18.3 61 16.1 87 87 WNW 6 9 30.00 1016 10 16 0.00 0.00
1:56 am 01:56 Clear 61 16.1 N/A N/A WNW 5 7 30.01 1016 10 16 0.00 0.00
2:56 am 02:56 Clear 60 15.6 N/A N/A NW 5 7 30.00 1016 10 16 0.00 0.00
3:56 am 03:56 Clear 59 15 N/A N/A WNW 6 9 30.00 1016 10 16 0.00 0.00
4:56 am 04:56 Clear N/A N/A N/A WSW 6 9 30.07 1018 10 16 0.00 0.00
5:56 am 05:56 Clear N/A N/A N/A WSW 3 6 30.08 1019 10 16 0.00 0.00
6:56 am 06:56 Clear N/A N/A N/A SW 5 7 30.08 1019 10 16 0.00 0.00
7:56 am 07:56 Sunny N/A N/A N/A SW 5 7 30.10 1019 9 14 0.00 0.00
8:56 am 08:56 Sunny 65 18.3 64 17.8 97 97 WNW 5 7 30.05 1018 10 16 0.00 0.00
9:56 am 09:56 Sunny 69 20.6 61 16.1 75 75 NNW 6 9 30.05 1018 10 16 0.00 0.00
10:56 am 10:56 Sunny 74 23.3 60 15.6 62 62 WNW 8 13 30.06 1018 10 16 0.00 0.00
11:56 am 11:56 Mostly Sunny 75 23.9 57 13.9 54 54 NW 6 9 30.06 1018 10 16 0.00 0.00
12:56 pm 12:56 Sunny 78 25.6 56 13.3 47 47 VRB 5 7 30.04 1017 10 16 0.00 0.00
1:56 pm 13:56 Sunny 79 26.1 55 12.8 44 44 Calm 30.03 1017 10 16 0.00 0.00
2:56 pm 14:56 Sunny 80 26.7 55 12.8 42 42 NW 7 11 30.03 1017 10 16 0.00 0.00
3:56 pm 15:56 Partly Cloudy 80 26.7 55 12.8 42 42 NW 9 15 30.02 1017 10 16 0.00 0.00
4:56 pm 16:56 Sunny 81 27.2 55 12.8 41 41 WNW 13 20 29.97 1015 10 16 0.00 0.00
5:56 pm 17:56 Sunny 79 26.1 55 12.8 44 44 VRB 7 11 29.97 1015 10 16 0.00 0.00
6:56 pm 18:56 Sunny 77 25 56 13.3 48 48 WNW 10 17 29.97 1015 10 16 0.00 0.00
7:56 pm 19:56 Sunny 72 22.2 57 13.9 59 59 WNW 6 9 29.98 1015 10 16 0.00 0.00
8:56 pm 20:56 Clear 65 18.3 59 15 81 81 W 6 9 30.03 1017 10 16 0.00 0.00
9:56 pm 21:56 Clear 63 17.2 61 16.1 93 93 WSW 5 7 30.04 1017 10 16 0.00 0.00
10:56 pm 22:56 Clear 62 16.7 62 16.7 100 100 WSW 5 7 30.04 1017 10 16 0.00 0.00
11:56 pm 23:56 Clear 61 16.1 61 16.1 100 100 W 5 7 30.04 1017 10 16 0.00 0.00

Powered by AerisWeather